Location: Bright Skies Observatory
(38.9689°N, 77.0681°W)
Time: 10:54:02
(UTC-04:00)

Daily predictions for brighter satellites

Satellite Brightness Start Highest point End
(mag) Time Altitude Azimuth Time Altitude Azimuth Time Altitude Azimuth
SL-16 R/B 2.4 20:43:33 10° S 20:48:59 51° ESE 20:54:27 10° NNE
CZ-4 DEB 2.8 20:47:57 10° SSE 20:51:09 87° E 20:54:25 10° NNW
SPOT 5 4.3 20:48:49 10° ESE 20:51:53 19° ENE 20:54:55 10° NNE
Cosmos 1666 4.2 20:53:16 10° NNE 20:56:22 22° ENE 20:59:27 10° SE
Cosmos 1500 3.5 20:53:52 10° N 20:57:45 75° W 21:01:38 10° S
Lacrosse 5 rocket 1.6 20:54:24 10° SW 20:58:11 67° NW 21:02:12 10° NE
Cosmos 1331 Rocket 4.2 20:56:22 10° N 21:01:30 54° ENE 21:06:32 10° SE
Lacrosse 5 4.3 20:58:13 10° W 21:02:30 27° NNW 21:06:47 10° NNE
Meteor 1-23 Rocket 4.4 20:58:18 10° S 21:03:45 55° E 21:09:18 10° NNE
OTV 4 2.9 21:04:32 10° WSW 21:06:01 13° SSW 21:07:29 10° S
Cosmos 2285 Rocket 4.3 21:00:34 10° N 21:06:47 55° ENE 21:12:59 10° SE
Cosmos 1743 2.7 21:04:05 10° N 21:07:56 81° E 21:11:46 10° S
Cosmos 1726 Rocket 3.6 21:06:56 10° N 21:11:24 80° E 21:15:48 10° S
Cosmos 2233 Rocket 4.4 21:05:13 10° NNW 21:11:26 68° W 21:17:32 10° S
ALOS 3.0 21:09:27 10° S 21:14:02 55° W 21:18:37 10° NNW
SeaSat 1 3.2 21:10:21 11° SE 21:14:48 40° ENE 21:19:24 10° N
Okean 2 3.5 21:10:59 10° S 21:15:05 61° E 21:19:14 10° NNE
Cosmos 1603 4.3 21:12:57 10° SSE 21:17:54 33° ESE 21:22:51 10° NE
CZ-3C R/B 4.2 21:16:27 10° SW 21:18:46 11° SSW 21:20:28 10° S
Cosmos 1464 Rocket 4.0 21:13:55 10° N 21:20:01 65° E 21:26:08 10° SSE
Cosmos 2058 Rocket 3.0 21:18:00 10° N 21:22:24 80° E 21:26:45 10° S
APEX 4.1 21:19:01 10° N 21:22:55 46° ENE 21:26:55 15° SE
Cosmos 2098 Rocket 4.5 21:20:11 10° NNW 21:23:11 30° W 21:26:45 10° SSW
Meteor 2-9 Rocket 4.3 21:18:35 10° N 21:24:14 64° E 21:29:55 10° SSE
Meteor 2-4 Rocket 3.8 21:20:16 10° S 21:26:06 87° E 21:32:04 10° N
Cosmos 1602 Rocket 4.0 21:24:32 10° SSE 21:28:47 44° E 21:33:03 10° NNE
Cosmos 2333 Rocket 4.4 21:24:49 10° WSW 21:29:43 30° WNW 21:34:40 10° N
Cosmos 2251 Rocket 4.4 21:25:20 10° SW 21:30:30 53° WNW 21:35:45 10° N
Cosmos 1461 3.9 21:28:00 10° NNW 21:31:59 35° NE 21:34:38 17° ESE
deb Chang Zheng 4 3.9 21:28:16 10° N 21:32:40 71° WNW 21:37:00 10° SSW
Cosmos 2297 3.9 21:27:51 10° NNW 21:33:34 72° WSW 21:39:04 11° SSE
ATLAS 3B R/B 4.1 21:29:52 13° SE 21:34:12 21° ESE 21:39:31 10° ENE
Milstar 3 Cent rocket 3.7 21:30:35 10° WSW 21:36:18 23° SSW 21:39:27 14° SSE
Cosmos 2034 Rocket 4.1 21:31:33 10° N 21:37:55 68° E 21:43:36 13° SSE
PSLV R/B 3.4 21:37:02 23° SE 21:38:44 53° ENE 21:41:46 10° N
CZ-2C R/B 2.8 21:37:02 10° SSW 21:38:54 21° W 21:40:48 10° NW
Cosmos 1812 Rocket 4.3 21:36:23 10° N 21:40:26 36° ENE 21:42:44 21° SE
ERS-1 Rocket 3.6 21:38:00 10° S 21:42:53 53° W 21:47:48 10° NNW
Cosmos 1943 4.4 21:41:51 19° SE 21:43:42 22° E 21:47:57 10° NE
Envisat 3.0 21:39:38 14° SSE 21:43:58 79° ENE 21:49:04 10° N
BREEZE-M DEB (TANK) 2.3 21:40:01 10° SW 21:45:16 84° SSE 21:47:32 10° ENE
USA 234 3.5 21:43:14 16° ESE 21:48:30 62° NE 21:54:58 10° NW
YAOGAN 6 3.4 21:50:25 26° ESE 21:51:52 38° ENE 21:55:21 10° N
H-2A R/B 3.0 21:48:39 10° S 21:52:40 43° W 21:56:48 10° NNW
MetOp-A 4.1 21:56:21 21° SSE 21:59:57 75° ENE 22:05:19 10° N
Cosmos 1626 Rocket 3.7 21:57:51 10° S 22:02:17 77° W 22:06:44 10° N
Abrixas rocket 2.2 21:59:09 10° WNW 22:02:35 85° SW 22:03:38 42° SE
Meteor 2-12 Rocket 4.4 22:06:06 10° N 22:12:12 68° E 22:15:35 27° SSE
Atlas Centaur 2 3.4 22:06:18 10° SW 22:13:32 40° SSE 22:18:15 23° ESE
CZ-4C R/B 4.2 22:15:26 33° ESE 22:16:31 39° ENE 22:20:24 10° N
Cosmos 2228 4.4 22:13:55 10° NNW 22:17:57 36° W 22:21:32 12° SSW
Cosmos 1953 Rocket 4.2 22:18:27 34° ESE 22:18:56 35° E 22:22:58 10° NNE
H-2A R/B 3.0 22:19:20 26° E 22:20:47 30° ENE 22:25:08 10° N
PSLV R/B 3.2 22:18:13 10° WSW 22:21:46 77° SSE 22:22:27 54° E
COSMOS 2455 2.7 22:16:44 10° SSW 22:22:43 80° ESE 22:28:45 10° NNE
Cosmos 1992 Rocket 4.3 22:18:50 10° N 22:23:57 53° ENE 22:25:45 36° ESE
CZ-4 R/B 3.8 22:19:40 10° NNE 22:24:40 76° ESE 22:27:22 28° S
SPOT 1/Viking Rocket 3.5 22:26:44 32° S 22:29:10 83° WSW 22:34:22 10° NNW
Cosmos 2369 Rocket 2.8 22:23:56 10° N 22:29:20 43° ENE 22:31:20 32° ESE
SPOT 5 3.8 22:26:56 18° SSW 22:29:43 37° W 22:33:46 10° NNW
DELTA 2 DEB (DPAF) 4.3 22:29:30 44° SE 22:30:36 59° ENE 22:35:02 10° N
ARGOS 3.1 22:29:23 36° SSE 22:31:43 82° ENE 22:37:10 10° NNW
IGS 5A 4.4 22:36:44 31° ENE 22:36:59 32° ENE 22:40:41 10° N
Cosmos 1953 4.4 22:35:47 10° NE 22:37:47 15° ENE 22:37:47 15° ENE
Cosmos 1190 Rocket 4.0 22:37:27 42° SSE 22:38:58 59° ESE 22:44:11 10° NNE
Geosat 3.9 22:34:05 10° NNE 22:39:09 83° ESE 22:42:04 26° SSW
NOAA 11 4.1 22:37:26 39° SSE 22:39:33 88° ENE 22:45:00 10° NNW
Landsat 7 3.9 22:40:04 49° SE 22:41:07 63° ENE 22:45:50 10° N
Cosmos-2242 4.4 22:41:32 10° NNE 22:45:05 25° ENE 22:45:05 25° ENE
DEBRIS 4.1 22:43:16 10° WNW 22:45:17 21° WSW 22:45:17 21° WSW
Meteor 1-22 Rocket 4.3 22:40:31 10° N 22:46:04 65° E 22:47:39 46° SE
Spot 2 4.5 22:46:02 10° NNE 22:50:42 54° E 22:51:03 53° ESE
SeaSat 1 4.1 22:50:09 19° SW 22:52:23 25° WSW 22:56:28 10° NW
Cosmos 1758 Rocket 3.4 22:53:08 69° ESE 22:53:21 71° E 22:57:43 10° NNE
Lacrosse 4 Rocket 2.3 22:55:02 35° ENE 22:55:02 35° ENE 22:57:42 10° NE
Cosmos 676 Rocket 4.2 22:54:57 48° ESE 22:55:09 48° ESE 23:00:17 10° NNE
SL-08 RB Rocket 3.9 22:55:15 49° SSW 22:56:14 64° W 23:00:45 10° NNW
Terra 1.8 22:56:20 57° ESE 22:56:55 63° ENE 23:01:37 10° N
CARTOSAT-1 3.5 22:57:34 66° E 22:57:45 68° ENE 23:02:03 10° N
Cosmos 1066 Rocket 4.4 22:57:30 31° SSW 23:00:18 70° W 23:06:05 10° N
Cosmos 1346 Rocket 2.8 23:03:05 71° WNW 23:03:05 71° WNW 23:06:58 10° N
Cosmos 1900 4.2 23:17:41 77° SE 23:17:52 78° ESE 23:23:02 10° NNE
Meteor 1-21 4.3 23:19:02 52° SSW 23:20:31 81° W 23:26:22 10° N
Nadezhda 4 Rocket 4.2 23:21:21 51° ESE 23:22:06 54° E 23:28:14 10° NNE
Cosmos 1842 3.9 23:23:01 52° N 23:23:01 52° N 23:26:03 10° N
Cosmos 1758 4.3 23:18:38 10° N 23:21:45 41° NE 23:21:45 41° NE
ATLAS 3B R/B 3.0 23:16:52 12° SW 23:24:12 80° WNW 23:31:48 10° NNE
Cosmos 1943 4.0 23:23:34 20° SW 23:27:21 49° WNW 23:32:52 10° NNE
Cosmos 407 Rocket 3.9 23:27:23 43° SW 23:28:53 61° WNW 23:34:05 10° NNE
USA 234 4.0 23:30:35 34° SSW 23:31:39 36° SW 23:37:37 10° WNW
Cosmos 1943 Rocket 2.2 23:36:27 10° NNW 23:41:59 67° ENE 23:42:15 66° E
Cosmos 1954 Rocket 4.0 23:47:02 70° WSW 23:47:23 73° WNW 23:52:42 10° NNE
CZ-4B R/B 4.2 23:50:30 15° NE 23:50:30 15° NE 23:51:41 10° NNE
